MIDAS 4 DEB, 195

Orbit data source: Space-Track

MIDAS 4 DEB, 195 is space debris in LEO originally from a launch on Sat, 21 Oct 1961 UTC launched from the Air Force Western Test Range (AFWTR). Debris objects in space refer to the collection of defunct objects orbiting the Earth. Examples of debris include non-operational satellites, rocket bodies, and fragments generated from explosions, collisions, or faulty payload assembly.

Loading next visibility...
Identifier
195, 1961-028D
Orbit
LEO
Country
Flag of USUS
Related business
Manufacturer
Unknown
Mission
Spacecraft
Bus & Motor
Unknown
Mass
~10 kg wet, ~10 kg dry
Launch date (UTC)
1961-10-21 (64 years ago)
Launch vehicle
Unknown
Launch site
Air Force Western Test Range (AFWTR)
Object type
Payload
Rocket body
Debris
Shape & HBR
Unknown shape, 1.1 m
Radar Cross Section
Medium (>0.1 m² and <1 m²)

Expand to show TLE details & history
Last TLE update: 1 day ago

TLE from 1 day ago
0 MIDAS 4 DEB
1 00195U 61028D   25347.89557665 -.00000034  00000-0 -14200-1 0  9991
2 00195  95.8310 165.5658 0126725 255.1197 103.5590  8.65621887 26992
Epoch: 2025-12-13T21:29Z
TLE epoch observation values (Epoch: 2025-12-13T21:29:37.822Z)
Latitude
0.00003°
Longitude
120.34192°
Altitude
3,674.884 km
Speed
6.288 km/s
True Right ascension
11h 02m 15s
True Declination
0° 00' 00"
Sunlit
Object was in daylight at epoch
Visualization orbit readout
Latitude
Unknown
Longitude
Unknown
Altitude
Unknown
Speed
Unknown
Apparent Right ascension
Unknown
Apparent Declination
Unknown
Sunlit
N/A
Visualization observer readout
Local Sidereal Time
23:18:35
Azimuth
Unknown
Elevation
Unknown
Doppler factor
Unknown
Orbital elements
Apogee altitude
3,766.269 km
Perigee altitude
3,512.377 km
Semi-major axis
10,017.46 km
Eccentricity
0.01267
Inclination
95.831°
RAAN
165.5658°
Arg. of periapsis
255.1197°
True anomaly
104.96532°
Mean anomaly
103.559°
Eccentric anomaly
104.2627°
Mean motion
2.16474 °/min
Orbital period
166.3 mins
BSTAR
-0.0142
Loading maneuver chart data...
Computing Atmospheric mass density...
Loading historical data...
Loading historical data...
Loading historical data...
Loading historical data...
Loading historical data...
Loading historical data...
Loading historical data...

Documentation

Showing up to 5 results
|